Regional Weather Roundup
Issued by NWS

Home | Current Version | Previous Version | Graphics & Text | Print | Product List | Glossary On
Versions: 1 2 3 4 5 6 7 8 9 10 11 12 13 14 15 16 17 18 19 20 21 22 23 24 25 26 27 28 29 30 31 32 33 34 35 36 37 38 39 40 41 42 43 44 45 46 47 48 49 50
889
ASUS43 KLOT 282003
RWRIL

ILLINOIS REGIONAL WEATHER ROUNDUP
NATIONAL WEATHER SERVICE CHICAGO/ROMEOVILLE IL
300 PM CDT WED JUN 28 2017

NOTE: "FAIR" INDICATES FEW OR NO CLOUDS BELOW 12,000 FEET WITH NO
SIGNIFICANT WEATHER AND/OR OBSTRUCTIONS TO VISIBILITY.

* THESE STATIONS ARE NOT UNDER NWS QUALITY CONTROL. THEY ALSO MAY NOT
  REPORT WEATHER SUCH AS PRECIPITATION OR FOG.

ILZ001-002-007-009-015-016-024-282100-
NORTHWEST ILLINOIS

CITY           SKY/WX    TMP DP  RH WIND       PRES   REMARKS
MOLINE         CLOUDY    79  68  69 S18G25    29.78F HX  81
STERLING*      PTSUNNY   76  68  76 S9G17     29.81F
SAVANNA*       CLOUDY    76  68  77 S13G20    29.78S
$$

ILZ003-004-008-010-011-017-018-282100-
NORTH CENTRAL ILLINOIS

CITY           SKY/WX    TMP DP  RH WIND       PRES   REMARKS
ROCKFORD       TSTM      71  66  84 S21       29.82F
FREEPORT*      CLOUDY    72  66  79 S23G31    29.81F THUNDER
ROCHELLE*      CLOUDY    73  67  82 S21G28    29.82F THUNDER
DE KALB*       CLOUDY    70  66  87 S16G24    29.84F
PERU*          LGT RAIN  76  67  72 S16G24    29.83F
$$

ILZ005-006-012>014-019>023-282100-
NORTHEAST ILLINOIS

CITY           SKY/WX    TMP DP  RH WIND       PRES   REMARKS
CHICAGO-OHARE  CLOUDY    74  62  66 S14       29.85F
CHICAGO-MIDWAY CLOUDY    77  61  57 S21G29    29.85F
AURORA         CLOUDY    76  67  73 S12       29.86F
LANSING*       MOSUNNY   77  58  52 S17G26    29.90F
JOLIET*        CLOUDY    80  65  61 S13G20    29.86F HX  82
WAUKEGAN       CLOUDY    71  62  73 S15G26    29.84F
DUPAGE AIRPORT CLOUDY    74  66  76 S17G25    29.84F
WHEELING       CLOUDY    73  64  73 S16G23    29.87F
MORRIS*        CLOUDY    80  63  56 S22G29    29.84F HX  82
ROMEOVILLE*    CLOUDY    77  62  58 S18G29    29.86F
$$

LMZ740>746-282100-
SOUTHERN LAKE MICHIGAN

STATION/POSITION SKY/WX   TEMP    WIND        PRES    VSBY  WAVE
                          AIR SEA DIR/SP/G                  HT/PER
                          (F)     (DEG/KT/KT) (MB)    (MI)  (FT/S)
SOUTHERN BUOY              65 60  180/ 17/ 21 1012.1          5/ 5
WILMETTE HARBOR            66 62  150/ 14/ 16   N/A           3/ 4
HARRISON CRIB              72     190/ 25/ 27   N/A
BURNHAM HARBOR             76                   N/A
CALUMET HARBOR             75     170/ 15/ 24 1011.0F
BURNS HARBOR               77     180/ 20/ 27 1012.5F
MICHIGAN CITY              74     160/ 20/ 27   N/A
MICHIGAN CITY 6N           73 66  170/ 19/ 29   N/A           2/ 3
ST. JOSEPH                 72 67  180/ 19/ 25 1012.5F         3/ 3
$$

ILZ025>027-034>036-040-047-049-050-058-095>099-282100-
WEST-CENTRAL ILLINOIS

CITY           SKY/WX    TMP DP  RH WIND       PRES   REMARKS
QUINCY         MOSUNNY   85  66  53 S21G31    29.84F HX  87
GALESBURG*     CLOUDY    80  67  64 S17G25    29.82F THUNDER HX  82
MACOMB*        PTSUNNY   82  66  59 S17G24    29.85F HX  84
JACKSONVILLE*  MOSUNNY   84  63  49 S22G30    29.86F HX  85
PITTSFIELD*    SUNNY     85  67  55 S15G26    29.86F HX  87
$$

ILZ028>032-037-038-041>044-048-051>054-059>061-282100-
CENTRAL ILLINOIS

CITY           SKY/WX    TMP DP  RH WIND       PRES   REMARKS
PONTIAC        MOSUNNY   84  64  50 S24G31    29.89F HX  85
BLOOMINGTON    CLOUDY    80  64  58 S25       29.90F HX  82
DECATUR        CLOUDY    83  62  49 S25G33    29.92F HX  84
PEORIA         MOSUNNY   83  65  54 S20G35    29.84F HX  85
LACON*         CLOUDY    80  66  62 S10G18    29.84F HX  82
LINCOLN*       PTSUNNY   83  65  54 S17G28    29.89F HX  85
SPRINGFIELD    PTSUNNY   86  66  51 S14G28    29.88F HX  88
TAYLORVILLE    MOSUNNY   82  63  52 S20       29.92F HX  83
$$

ILZ033-039-045-046-055>057-062-063-282100-
EAST-CENTRAL ILLINOIS

CITY           SKY/WX    TMP DP  RH WIND       PRES   REMARKS
CHAMPAIGN      SUNNY     83  61  47 S18G29    29.93F HX  83
RANTOUL*       MOSUNNY   84  62  47 S20G28    29.94S HX  84
MATTOON        MOSUNNY   81  65  58 S18G25    29.96F HX  83
PARIS*         MOSUNNY   81  64  57 S16G24    29.98F HX  82
$$

ILZ079-100>102-282100-
SOUTHWEST ILLINOIS

CITY           SKY/WX    TMP DP  RH WIND       PRES   REMARKS
ALTON          PTSUNNY   82  68  61 S15G21    29.93F HX  85
BELLEVILLE     PTSUNNY   84  66  55 SW17G25   29.94F HX  86
CAHOKIA*       MOSUNNY   86  61  42 S12G22    29.92F HX  86
SPARTA*        CLOUDY    84  63  49 S15G24    29.96F HX  85
$$

ILZ064>066-069>071-074>076-080>082-084>086-088>090-092>094-282100-
SOUTH-CENTRAL ILLINOIS

CITY           SKY/WX    TMP DP  RH WIND       PRES   REMARKS
CARBONDALE     CLOUDY    83  65  54 S16G23    29.98F HX  85
CAIRO*         CLOUDY    85  65  50 S12       30.00F HX  86
EFFINGHAM*     PTSUNNY   82  64  54 SE12G18   29.98F HX  83
MARION         PTSUNNY   84  66  54 S12       30.01F HX  86
MT. VERNON     PTSUNNY   85  67  54 S15       29.98F HX  87
SALEM*         PTSUNNY   84  64  52 S14G20    29.97F HX  85
METROPOLIS*    RAIN      84  64  49 S7        30.01F HX  85
$$

ILZ067-068-072-073-078-083-087-091-282100-
SOUTHEAST ILLINOIS

CITY           SKY/WX    TMP DP  RH WIND       PRES   REMARKS
LAWRENCEVILLE  CLOUDY    81  62  52 S12       30.01F HX  82
FLORA*         CLOUDY   N/A N/A N/A S17       29.99F
FAIRFIELD*     PTSUNNY   83  62  50 S9        29.98F HX  83
HARRISBURG*    CLOUDY    84  66  54 S9        30.01F HX  87
ROBINSON*      MOSUNNY   81  62  52 S13G18    30.01F HX  82
CARMI*         PTSUNNY   83  65  53 S13       30.00F HX  85
$$

ABBREVIATIONS USED IN REMARKS
   TC - TEMPERATURE IN CELSIUS
  WCI - WIND CHILL INDEX
   HX - HEAT INDEX
  VSB - VISIBILITY
$$





USA.gov is the U.S. government's official web portal to all federal, state and local government web resources and services.